Home   Weather   Bünde   Past weeks

Flag for Germany Past Weather in Bünde, North Rhine-Westphalia, Germany — Yesterday and Last 2 Weeks

Now
34 °F

Broken clouds.


Feels Like: 25 °F
Forecast: 37 / 44 °F
Wind: 13 mph from South

Location: Bueckeburg

Current Time: Dec 7, 2016 at 9:43:14 am

Latest Report: Dec 7, 2016 at 8:20 am


Visibility: N/A

Pressure: 30.42 "Hg

Humidity: 81%

Dew Point: 28 °F

Location of BündeLocation

Past Weather in Bünde — Graph

°F

Bünde Temperature Yesterday

Maximum temperature yesterday: 36 °F (at 2:20 pm)
Minimum temperature yesterday: 21 °F (at 7:20 am)
Average temperature yesterday: 27 °F

High & Low Weather Summary for the Past Weeks

 TemperatureHumidityPressure
High57 °F (Nov 22, 1:20 pm)100% (Nov 23, 7:20 am)30.60 "Hg (Nov 23, 7:20 am)
Low21 °F (Nov 29, 3:20 am)52% (Dec 5, 1:20 pm)29.71 "Hg (Nov 22, 8:20 am)
Average35 °F88%30.27 "Hg
* Reported Nov 22 8:20 am — Dec 7 8:20 am, Bünde, Weather by CustomWeather, © 2016

Note: Actual official high and low records may vary slightly from our data, if they occured in-between our weather recording intervals... More about our weather records

Advertising

Bünde Weather History for the Previous 24 Hours

Scroll right to see more
 ConditionsComfort  
Time TempWeatherWind HumidityBarometerVisibility
8:20 am
Wed, Dec 7
34 °FBroken clouds.13 mph81%30.42 "HgN/A
7:20 am32 °FPassing clouds.17 mph87%30.42 "HgN/A
6:20 am32 °FPassing clouds.17 mph87%30.42 "HgN/A
5:20 am30 °FPassing clouds.16 mph93%30.42 "HgN/A
4:20 am30 °FPassing clouds.16 mph86%30.45 "HgN/A
3:20 am30 °FPassing clouds.10 mph86%30.48 "HgN/A
2:20 am30 °FPassing clouds.14 mph86%30.45 "Hg5 mi
1:20 am30 °FPassing clouds.7 mph86%30.48 "Hg5 mi
12:20 am28 °FPassing clouds.10 mph93%30.48 "Hg4 mi
11:20 pm
Tue, Dec 6
28 °FIce fog.7 mph86%30.48 "Hg3 mi
10:20 pm27 °FIce fog.8 mph93%30.48 "Hg3 mi
9:20 pm27 °FPassing clouds.8 mph93%30.48 "Hg4 mi
8:20 pm27 °FPassing clouds.8 mph86%30.48 "HgN/A
6:20 pm28 °FPassing clouds.3 mph86%30.48 "HgN/A
5:20 pm28 °FPassing clouds.7 mph86%30.48 "HgN/A
4:20 pm30 °FPassing clouds.3 mph80%30.48 "HgN/A
3:20 pm34 °FPassing clouds.6 mph75%30.45 "HgN/A
2:20 pm36 °FPassing clouds.7 mph70%30.45 "HgN/A
1:20 pm34 °FFog.9 mph70%30.45 "HgN/A
12:20 pm32 °FFog.9 mph80%30.45 "HgN/A
11:20 am30 °FFog.8 mph80%30.45 "HgN/A
10:20 am28 °FPassing clouds.9 mph86%30.45 "HgN/A
9:20 am27 °FPassing clouds.7 mph86%30.45 "HgN/A
Weather by CustomWeather, © 2016

See weather overviewHow to use our weather pages